EW2280 Weather Reports


time (UTC)temp
C
wind
direction
speed
KPH
gust
KPH
rain 1hr
cm
rain 24hr
cm
rain mn
cm
humidity
%
barometer
mb
20260904144552 26 122 0.0 0.0 0.00 0.03 0.00 97 1016.7
20260904143032 25 122 0.0 0.0 0.00 0.03 0.00 97 1016.6
20260904141538 25 122 0.0 0.0 0.00 0.03 0.00 97 1016.6
20260904140015 24 122 0.0 0.0 0.00 0.03 0.00 97 1016.7
20260904134514 23 122 0.0 0.0 0.00 0.03 0.00 97 1016.7
20260904133011 23 122 0.0 0.0 0.00 0.03 0.00 97 1016.6
20260904131509 22 122 0.0 0.0 0.00 0.03 0.00 97 1016.7
20260904130004 22 122 0.0 0.0 0.00 0.03 0.00 96 1016.7
20260904124601 22 122 0.0 0.0 0.00 0.03 0.00 96 1016.6
20260904123104 21 122 0.0 0.0 0.00 0.03 0.00 96 1016.6
20260904121600 21 122 0.0 0.0 0.00 0.03 0.00 96 1016.6
20260904120049 21 122 0.0 0.0 0.00 0.03 0.00 96 1016.4
20260904114538 20 122 0.0 0.0 0.00 0.03 0.00 96 1016.1
20260904113025 20 122 0.0 0.0 0.00 0.03 0.00 96 1015.9
20260904111518 21 122 0.0 0.0 0.00 0.03 0.00 96 1015.8
20260904110059 21 122 0.0 0.0 0.00 0.03 0.00 96 1015.6
20260904104605 21 122 0.0 0.0 0.00 0.03 0.00 96 1015.6
20260904103057 20 122 0.0 0.0 0.00 0.03 0.00 96 1015.5
20260904101545 20 122 0.0 0.0 0.00 0.03 0.00 96 1015.3
20260904100045 21 122 0.0 0.0 0.00 0.03 0.00 96 1015.4
20260904094546 21 122 0.0 0.0 0.00 0.03 0.00 96 1015.3
20260904093044 21 122 0.0 0.0 0.00 0.03 0.00 96 1015.3
20260904091549 21 122 0.0 0.0 0.00 0.03 0.00 96 1015.3
20260904090043 21 122 0.0 0.0 0.00 0.03 0.00 96 1015.2
20260904084542 21 122 0.0 0.0 0.00 0.03 0.00 96 1015.1
20260904083038 21 122 0.0 0.0 0.00 0.03 0.00 100 1015.0
20260904081528 21 122 0.0 0.0 0.00 0.03 0.00 100 1015.0
20260904080028 21 122 0.0 0.0 0.00 0.03 0.00 100 1014.9
20260904074544 21 122 0.0 0.0 0.00 0.03 0.00 100 1014.8
20260904073034 21 122 0.0 0.0 0.00 0.03 0.00 100 1014.7
20260904071527 21 122 0.0 0.0 0.00 0.03 0.00 100 1014.9
20260904070024 21 122 0.0 0.0 0.00 0.03 0.00 100 1014.8
20260904064528 21 122 0.0 0.0 0.00 0.03 0.00 100 1015.0
20260904063015 21 122 0.0 0.0 0.00 0.03 0.00 100 1015.1
20260904061513 21 122 0.0 0.0 0.00 0.03 0.00 100 1015.1
20260904060012 21 122 0.0 0.0 0.00 0.03 0.00 100 1015.2
20260904054513 21 122 0.0 0.0 0.00 0.03 0.00 100 1015.2
20260904053011 21 122 0.0 0.0 0.00 0.03 0.00 100 1015.3
20260904051505 21 122 0.0 0.0 0.00 0.03 0.00 100 1015.4
20260904050001 21 122 0.0 0.0 0.00 0.03 0.00 100 1015.4
20260904044502 21 122 0.0 0.0 0.00 0.03 0.03 100 1015.4
20260904043055 21 122 0.0 0.0 0.00 0.03 0.03 100 1015.5
20260904041558 22 122 0.0 0.0 0.00 0.03 0.03 100 1015.5
20260904040104 22 122 0.0 0.0 0.00 0.03 0.03 100 1015.6
20260904034549 22 122 0.0 0.0 0.00 0.03 0.03 100 1015.8
20260904033047 22 122 0.0 0.0 0.00 0.03 0.03 100 1015.7
20260904031550 22 122 0.0 0.0 0.00 0.03 0.03 100 1015.7
20260904030047 22 122 0.0 0.0 0.00 0.03 0.03 100 1015.7
20260904024547 22 122 0.0 0.0 0.00 0.03 0.03 100 1015.7
20260904023042 22 122 0.0 0.0 0.00 0.03 0.03 100 1015.6
20260904021538 22 122 0.0 0.0 0.00 0.03 0.03 100 1015.5
20260904020033 22 122 0.0 0.0 0.00 0.03 0.03 100 1015.3
20260904014545 23 122 0.0 0.0 0.00 0.03 0.03 100 1015.1
20260904013038 23 122 0.0 0.0 0.00 0.03 0.03 100 1014.9
20260904011532 23 122 0.0 0.0 0.00 0.03 0.03 100 1014.8
20260904010031 23 122 0.0 0.0 0.00 0.03 0.03 100 1014.6
20260904004531 23 122 0.0 0.0 0.00 0.03 0.03 100 1014.6
20260904003013 24 122 0.0 0.0 0.00 0.03 0.03 100 1014.4
20260904001516 24 122 0.0 0.0 0.00 0.03 0.03 100 1014.3
20260903234601 25 122 0.0 1.6 0.03 0.03 0.03 100 1014.2
20260903233202 25 122 0.0 0.0 0.03 0.03 0.03 99 1014.1
20260903231559 25 122 0.0 0.0 0.03 0.03 0.03 97 1014.0
20260903230058 25 122 0.0 1.6 0.03 0.03 0.03 94 1014.0
20260903224558 27 122 0.0 1.6 0.00 0.00 0.00 79 1013.8
20260903223113 31 339 3.2 9.7 0.00 0.00 0.00 60 1013.9
20260903221557 33 341 1.6 9.7 0.00 0.00 0.00 66 1013.6
20260903220111 34 92 0.0 0.0 0.00 0.00 0.00 63 1013.2
20260903214543 36 92 0.0 1.6 0.00 0.00 0.00 56 1013.4
20260903213042 36 127 0.0 1.6 0.00 0.00 0.00 59 1013.4
20260903211541 36 291 0.0 1.6 0.00 0.00 0.00 57 1013.5
20260903210038 37 292 0.0 3.2 0.00 0.00 0.00 55 1013.7
20260903204535 37 113 0.0 1.6 0.00 0.00 0.00 57 1013.8
20260903203033 37 17 0.0 1.6 0.00 0.00 0.00 57 1014.1
20260903201532 36 243 0.0 4.8 0.00 0.00 0.00 58 1014.3
20260903200018 36 232 0.0 1.6 0.00 0.00 0.00 57 1014.4
20260903194516 36 321 0.0 0.0 0.00 0.00 0.00 58 1014.6
20260903193012 36 208 0.0 3.2 0.00 0.00 0.00 58 1014.9
20260903191509 36 51 0.0 4.8 0.00 0.00 0.00 57 1015.0
20260903190006 35 103 0.0 3.2 0.00 0.00 0.00 62 1015.2
20260903184504 32 128 0.0 1.6 0.00 0.00 0.00 68 1015.5
20260903183002 33 124 0.0 4.8 0.00 0.00 0.00 64 1015.6
20260903181500 35 105 3.2 11.3 0.00 0.00 0.00 59 1015.7
20260903180059 35 254 0.0 4.8 0.00 0.00 0.00 61 1015.9
20260903174541 35 141 0.0 4.8 0.00 0.00 0.00 63 1016.1
20260903173038 33 34 0.0 6.4 0.00 0.00 0.00 69 1016.3
20260903171544 33 85 0.0 3.2 0.00 0.00 0.00 76 1016.6
20260903170040 32 194 1.6 6.4 0.00 0.00 0.00 77 1016.8
20260903164527 32 236 0.0 4.8 0.00 0.00 0.00 82 1017.0
20260903163025 31 188 0.0 1.6 0.00 0.00 0.00 87 1017.1
20260903161521 30 251 0.0 1.6 0.00 0.00 0.00 96 1017.3
20260903160015 28 120 0.0 1.6 0.00 0.00 0.00 99 1017.3
20260903154557 27 127 0.0 3.2 0.00 0.00 0.00 99 1017.4
20260903153054 27 89 0.0 3.2 0.00 0.00 0.00 100 1017.4
20260903151553 27 251 0.0 0.0 0.00 0.00 0.00 100 1017.4
20260903150107 26 251 0.0 0.0 0.00 0.00 0.00 100 1017.4